| time (UTC) | temp F | wind direction | speed MPH | gust MPH | rain 1hr in | rain 24hr in | rain mn in | humidity % | barometer mb |
| 20260830184513 | 76 | 203 | 1.0 | 7.0 | 0.00 | 0.00 | 0.00 | 67 | 1018.0 |
| 20260830183012 | 76 | 240 | 2.0 | 5.0 | 0.00 | 0.00 | 0.00 | 65 | 1018.1 |
| 20260830181509 | 77 | 241 | 1.0 | 4.0 | 0.00 | 0.00 | 0.00 | 63 | 1018.1 |
| 20260830180006 | 78 | 25 | 0.0 | 3.0 | 0.00 | 0.00 | 0.00 | 64 | 1018.0 |
| 20260830174503 | 76 | 206 | 2.0 | 5.0 | 0.00 | 0.00 | 0.00 | 66 | 1018.3 |
| 20260830173134 | 76 | 193 | 0.0 | 4.0 | 0.00 | 0.00 | 0.00 | 67 | 1018.3 |
| 20260830171603 | 76 | 269 | 1.0 | 4.0 | 0.00 | 0.00 | 0.00 | 67 | 1018.7 |
| 20260830170054 | 73 | 276 | 0.0 | 4.0 | 0.00 | 0.00 | 0.00 | 72 | 1018.8 |
| 20260830164552 | 73 | 310 | 1.0 | 5.0 | 0.00 | 0.00 | 0.00 | 70 | 1019.0 |
| 20260830163053 | 73 | 251 | 1.0 | 3.0 | 0.00 | 0.00 | 0.00 | 70 | 1019.1 |
| 20260830161602 | 73 | 231 | 0.0 | 2.0 | 0.00 | 0.00 | 0.00 | 70 | 1019.2 |
| 20260830160047 | 73 | 205 | 0.0 | 1.0 | 0.00 | 0.00 | 0.00 | 70 | 1019.3 |
| 20260830154546 | 73 | 160 | 0.0 | 2.0 | 0.00 | 0.00 | 0.00 | 70 | 1019.4 |
| 20260830153041 | 72 | 123 | 0.0 | 1.0 | 0.00 | 0.00 | 0.00 | 72 | 1019.7 |
| 20260830151540 | 72 | 135 | 0.0 | 1.0 | 0.00 | 0.00 | 0.00 | 71 | 1019.8 |
| 20260830150038 | 70 | 344 | 0.0 | 2.0 | 0.00 | 0.00 | 0.00 | 73 | 1019.8 |
| 20260830144536 | 69 | 95 | 0.0 | 1.0 | 0.00 | 0.00 | 0.00 | 75 | 1019.7 |
| 20260830143031 | 68 | 38 | 0.0 | 2.0 | 0.00 | 0.00 | 0.00 | 77 | 1019.8 |
| 20260830141526 | 67 | 50 | 0.0 | 2.0 | 0.00 | 0.00 | 0.00 | 80 | 1019.8 |
| 20260830140025 | 65 | 46 | 0.0 | 2.0 | 0.00 | 0.00 | 0.00 | 83 | 1020.0 |
| 20260830134536 | 64 | 51 | 0.0 | 3.0 | 0.00 | 0.00 | 0.00 | 84 | 1020.1 |
| 20260830133015 | 63 | 336 | 0.0 | 3.0 | 0.00 | 0.00 | 0.00 | 85 | 1020.4 |
| 20260830131512 | 62 | 59 | 0.0 | 2.0 | 0.00 | 0.00 | 0.00 | 88 | 1020.4 |
| 20260830130008 | 60 | 85 | 0.0 | 2.0 | 0.00 | 0.00 | 0.00 | 89 | 1020.3 |
| 20260830124504 | 59 | 66 | 0.0 | 3.0 | 0.00 | 0.00 | 0.00 | 90 | 1020.4 |
| 20260830123002 | 59 | 85 | 0.0 | 2.0 | 0.00 | 0.00 | 0.00 | 90 | 1020.5 |
| 20260830121600 | 58 | 57 | 0.0 | 3.0 | 0.00 | 0.00 | 0.00 | 91 | 1020.8 |
| 20260830120101 | 58 | 50 | 0.0 | 2.0 | 0.00 | 0.00 | 0.00 | 91 | 1020.8 |